"Pseudo-MPEC" for ZH88094

Created 2018 Apr 20 15:18:21 UT using Find_Orb

Click here for an explanation of pseudo-MPECs

 
 Astrometry: 
     ZH88094  C2018 03 20lWAstrometrymtkXb/i2%;6pv;/1sX!tDj+1d]#APx2b:v+!pKw2F51
     ZH88094  C2018 03 204b+F=H@?F\/QnthKo?#\[=XgC3g:8LLZ1rwY8qYNeBTSHJLK`.CuF51
     ZH88094  C2018 04 16.27613 12 00 11.65 -13 12 59.1          20.8 GUNEOCPG96
     ZH88094  C2018 04 16.28129 12 00 11.13 -13 12 58.7          21.4 GUNEOCPG96
     ZH88094  C2018 04 16.28644 12 00 10.65 -13 12 57.0          21.0 GUNEOCPG96
     ZH88094  C2018 04 16.29160 12 00 10.16 -13 12 56.0          21.9 GUNEOCPG96
     ZH88094 |C2018 04 17f+ZC5`IIrAG+3e;xPredacted;8S]`W01=T5mutcUqx@HhaIsNA^807
     ZH88094 |C2018 04 17i?h'LLA)6STai!6cdFZ=T?*;h#C/bg(*nUV68FCm^\!O@u4]7iA^807
     ZH88094 |C2018 04 17DD\-`I5kqD!a7H^*C@XLtxG/[8R7Yj[WLBru1=G0r.Gtm+wjKUSc807
     ZH88094  C2018 04 17.88140 11 57 44.37 -13 07 50.6          20.6 VSNEOCP033
     ZH88094  C2018 04 17.88515 11 57 44.01 -13 07 49.7          21.1 VSNEOCP033
     ZH88094  C2018 04 17.88890 11 57 43.67 -13 07 48.9          20.4 VSNEOCP033
     ZH88094  C2018 04 17.89265 11 57 43.31 -13 07 48.4          20.9 VSNEOCP033
     ZH88094  C2018 04 18.14309 11 57 21.00 -13 06 54.9          20.9 GUNEOCPI52
     ZH88094  C2018 04 18.14643 11 57 20.65 -13 06 54.3          20.7 GUNEOCPI52
     ZH88094  C2018 04 18.14974 11 57 20.37 -13 06 54.3          21.0 GUNEOCPI52
     ZH88094  C2018 04 18.15308 11 57 20.06 -13 06 53.2          20.4 GUNEOCPI52
     ZH88094  C2018 04 18.87766 11 56 14.49 -13 04 29.9          21.1 VSNEOCP033
     ZH88094  C2018 04 18.88141 11 56 14.14 -13 04 29.6          20.9 VSNEOCP033
     ZH88094  C2018 04 18.88516 11 56 13.79 -13 04 28.5          20.7 VSNEOCP033
     ZH88094  C2018 04 18.88892 11 56 13.44 -13 04 27.6          20.7 VSNEOCP033
     ZH88094 |C2018 04 19chU;Y4+nE26qa!h.1a=X[0=XTCgpCt3,seeh!uV`iUrYMZ[;hl_%807
     ZH88094 |C2018 04 198Ivp#?8sb2,HOtI$P0n`('3(_/+DhwndmK*_EFr+I!Zr%d\MJ?U7807
     ZH88094 |C2018 04 19[q@tZ%?gAI8%/7K'wt\1Gau)5D78oW2*\+,^rM.eR=VXx-,NEOCP807
     ZH88094  C2018 04 19.84969 11 54 48.36 -13 01 10.3          21.0 VSNEOCP033
     ZH88094  C2018 04 19.89220 11 54 44.46 -13 01 01.0          20.3 VSNEOCP033
     ZH88094  C2018 04 20.16601 11 54 20.74 -13 00 01.2          21.1 GUNEOCPI52
     ZH88094  C2018 04 20.17285 11 54 20.17 -12 59 59.9          21.7 GUNEOCPI52

Station data:
(033) Karl Schwarzschild Observatory, Tautenburg  (N50.980140 E11.711240)
   Germany. 1.3-m Schmidt.
(807) Cerro Tololo Observatory, La Serena  (S30.169136 W70.805900)  Chile.
   Observers M. Holman, J. Kavelaars, T. Grav, W. Fraser. Measurer M. Holman.
   4-m Blanco reflector + CCD.
(F51) Pan-STARRS 1, Haleakala  (N20.707235 W156.255910)  US/Hawaii.
   Observers N. Primak, A. Schultz, S. Watters, J. Thiel, T. Goggia. Measurer
   PS1 Science Consortium. 1.8-m Ritchey-Chrétien + CCD.
(G96) Mt. Lemmon Survey  (N32.442754 W110.788720)  US/Arizona.  Observers E.
   J. Christensen, A. R. Gibbs, A. D. Grauer, R. E. Hill, J. A. Johnson, R.
   A. Kowalski, S. M. Larson, F. C. Shelly. 1.5-m reflector + CCD.
(I52) Steward Observatory, Mt. Lemmon Station  (N32.442547 W110.788920)
   US/Arizona.

Orbital elements:  ZH88094
   Perihelion 2018 Aug 1.514762 +/- 0.0507 TT = 12:21:15 (JD 2458332.014762)
Epoch 2018 Apr 20.0 TT = JDT 2458228.5   Earth MOID: 0.1370   Ma: 0.0829
M 328.05028 +/- 0.014               (J2000 ecliptic)          AutoNEOCP
n   0.30864891 +/- 0.000265         Peri.  314.90777 +/- 0.014
a   2.16850059 +/- 0.00124          Node   326.82406 +/- 0.032
e   0.4777829 +/- 0.0003            Incl.    5.93807 +/- 0.006
P   3.19                   H 20.4   G  0.15   U  7.2  
q 1.13242805 +/- 6.41e-5    Q 3.20457314 +/- 0.00248
From 28 observations 2018 Mar. 20-Apr. 20; mean residual 0".29
Residuals in arcseconds: 
180320 F51  .02-  .03-    180417 033  .02-  .09+    180418 033  .10-  .09+    
180320 F51  .01+  .01+    180417 033  .20+  .15+    180419 807  .24-  .73+    
180416 G96  .18+  .03-    180417 033  .14+  .09-    180419 807  .00   .33+    
180416 G96  .04-  .63-    180418 I52  .40-  .35+    180419 807  .03+  .11+    
180416 G96  .31+  .08+    180418 I52  .87-  .31+    180419 033  .35+  .54-    
180416 G96  .52+  .08+    180418 I52  .37-  .32-    180419 033  .42+  .03-    
180417 807  .19-  .11+    180418 I52  .26-  .14+    180420 I52  .28-  .24-    
180417 807  .02+  .01+    180418 033  .13-  .07+    180420 I52  .62+  .33-    
180417 807  .22+  .00     180418 033  .13-  .39-    
180417 033  .04+  .06-    180418 033  .12-  .05-    

Ephemerides (geocentric):
Date (UTC) HH   RA              Dec         delta   r     elong  mag " sig PA
---- -- -- --  ------------   ------------  ------ ------ -----  --- ---- ---
2018 04 20 15  11 53 40.496   -12 58 14.41  .60090 1.5576 150.9 21.2  .20  12
2018 04 20 16  11 53 36.888   -12 58 05.63  .60079 1.5573 150.9 21.2  .21  12
2018 04 20 17  11 53 33.282   -12 57 56.85  .60068 1.5570 150.8 21.2  .21  12
2018 04 20 18  11 53 29.680   -12 57 48.06  .60057 1.5568 150.8 21.2  .21  13
2018 04 20 19  11 53 26.080   -12 57 39.26  .60046 1.5565 150.7 21.2  .22  13
2018 04 20 20  11 53 22.484   -12 57 30.46  .60035 1.5563 150.7 21.2  .22  13
2018 04 20 21  11 53 18.891   -12 57 21.65  .60024 1.5560 150.6 21.2  .23  13
2018 04 20 22  11 53 15.301   -12 57 12.84  .60013 1.5557 150.6 21.2  .23  13
2018 04 20 23  11 53 11.714   -12 57 04.02  .60003 1.5555 150.5 21.2  .23  14
2018 04 21 00  11 53 08.131   -12 56 55.20  .59992 1.5552 150.5 21.2  .24  14
2018 04 21 01  11 53 04.550   -12 56 46.37  .59981 1.5550 150.4 21.2  .24  14
2018 04 21 02  11 53 00.973   -12 56 37.54  .59970 1.5547 150.4 21.2  .24  14
2018 04 21 03  11 52 57.398   -12 56 28.71  .59960 1.5544 150.3 21.2  .25  15
2018 04 21 04  11 52 53.827   -12 56 19.87  .59949 1.5542 150.3 21.2  .25  15
2018 04 21 05  11 52 50.260   -12 56 11.02  .59938 1.5539 150.2 21.2  .26  15
2018 04 21 06  11 52 46.695   -12 56 02.17  .59928 1.5536 150.2 21.2  .26  15
2018 04 21 07  11 52 43.134   -12 55 53.32  .59917 1.5534 150.1 21.2  .26  15
2018 04 21 08  11 52 39.575   -12 55 44.46  .59907 1.5531 150.1 21.2  .27  16
2018 04 21 09  11 52 36.021   -12 55 35.59  .59896 1.5529 150.0 21.2  .27  16
2018 04 21 10  11 52 32.469   -12 55 26.73  .59886 1.5526 150.0 21.2  .27  16
2018 04 21 11  11 52 28.920   -12 55 17.85  .59875 1.5523 149.9 21.2  .28  16
2018 04 21 12  11 52 25.375   -12 55 08.98  .59865 1.5521 149.9 21.2  .28  16
2018 04 21 13  11 52 21.834   -12 55 00.10  .59854 1.5518 149.8 21.2  .29  17
2018 04 21 14  11 52 18.295   -12 54 51.22  .59844 1.5516 149.8 21.2  .29  17
2018 04 21 15  11 52 14.760   -12 54 42.33  .59834 1.5513 149.7 21.2  .29  17
2018 04 21 16  11 52 11.228   -12 54 33.44  .59823 1.5510 149.7 21.2  .30  17
2018 04 21 17  11 52 07.699   -12 54 24.54  .59813 1.5508 149.6 21.2  .30  18
2018 04 21 18  11 52 04.174   -12 54 15.64  .59803 1.5505 149.6 21.2  .31  18
2018 04 21 19  11 52 00.652   -12 54 06.74  .59793 1.5503 149.5 21.2  .31  18
2018 04 21 20  11 51 57.134   -12 53 57.83  .59782 1.5500 149.5 21.2  .31  18
2018 04 21 21  11 51 53.618   -12 53 48.92  .59772 1.5497 149.4 21.2  .32  18
2018 04 21 22  11 51 50.107   -12 53 40.01  .59762 1.5495 149.4 21.2  .32  19
2018 04 21 23  11 51 46.598   -12 53 31.09  .59752 1.5492 149.3 21.2  .33  19
2018 04 22 00  11 51 43.093   -12 53 22.17  .59742 1.5489 149.3 21.2  .33  19
2018 04 22 01  11 51 39.592   -12 53 13.25  .59732 1.5487 149.2 21.2  .33  19
2018 04 22 02  11 51 36.093   -12 53 04.32  .59722 1.5484 149.2 21.2  .34  19
2018 04 22 03  11 51 32.599   -12 52 55.39  .59712 1.5482 149.1 21.2  .34  20
2018 04 22 04  11 51 29.107   -12 52 46.45  .59702 1.5479 149.1 21.2  .35  20
2018 04 22 05  11 51 25.619   -12 52 37.52  .59692 1.5476 149.0 21.2  .35  20
2018 04 22 06  11 51 22.135   -12 52 28.58  .59682 1.5474 149.0 21.2  .35  20
2018 04 22 07  11 51 18.654   -12 52 19.64  .59672 1.5471 148.9 21.2  .36  20
2018 04 22 08  11 51 15.177   -12 52 10.69  .59662 1.5469 148.8 21.2  .36  21
2018 04 22 09  11 51 11.703   -12 52 01.74  .59652 1.5466 148.8 21.2  .37  21
2018 04 22 10  11 51 08.232   -12 51 52.79  .59642 1.5463 148.7 21.2  .37  21
2018 04 22 11  11 51 04.765   -12 51 43.84  .59632 1.5461 148.7 21.2  .38  21
2018 04 22 12  11 51 01.302   -12 51 34.88  .59622 1.5458 148.6 21.2  .38  21
2018 04 22 13  11 50 57.842   -12 51 25.92  .59613 1.5456 148.6 21.2  .38  22
2018 04 22 14  11 50 54.385   -12 51 16.96  .59603 1.5453 148.5 21.2  .39  22